owner,sensor,date,latitude,longitude,vertical_datum,sea_water_temperature,qcFlag
BP,ioos:station:wmo:42880:2,2022-03-01T00:00:00Z,0.0000,0.0000,11.7,22.9,11111222
BP,ioos:station:wmo:42880:2,2022-03-01T00:10:00Z,0.0000,0.0000,11.7,22.9,11111222
BP,ioos:station:wmo:42880:2,2022-03-01T00:20:00Z,0.0000,0.0000,11.7,22.9,11111222
BP,ioos:station:wmo:42880:2,2022-03-01T00:30:00Z,0.0000,0.0000,11.6,22.9,11111222
BP,ioos:station:wmo:42880:2,2022-03-01T00:40:00Z,0.0000,0.0000,11.6,22.9,11111222
BP,ioos:station:wmo:42880:2,2022-03-01T00:50:00Z,0.0000,0.0000,11.6,22.9,11111222
BP,ioos:station:wmo:42880:2,2022-03-01T01:00:00Z,0.0000,0.0000,11.6,22.9,11111222
BP,ioos:station:wmo:42880:2,2022-03-01T01:10:00Z,0.0000,0.0000,11.6,22.9,11111222
BP,ioos:station:wmo:42880:2,2022-03-01T01:20:00Z,0.0000,0.0000,11.6,22.9,11111222
BP,ioos:station:wmo:42880:2,2022-03-01T01:30:00Z,0.0000,0.0000,11.6,22.9,11111222
BP,ioos:station:wmo:42880:2,2022-03-01T01:40:00Z,0.0000,0.0000,11.6,22.9,11111222
BP,ioos:station:wmo:42880:2,2022-03-01T01:50:00Z,0.0000,0.0000,11.6,22.9,11111222
BP,ioos:station:wmo:42880:2,2022-03-01T02:00:00Z,0.0000,0.0000,11.6,22.9,11111222
BP,ioos:station:wmo:42880:2,2022-03-01T02:10:00Z,0.0000,0.0000,11.6,22.9,11111222
BP,ioos:station:wmo:42880:2,2022-03-01T02:20:00Z,0.0000,0.0000,11.6,22.9,11111222
BP,ioos:station:wmo:42880:2,2022-03-01T02:30:00Z,0.0000,0.0000,11.6,22.8,11111222
BP,ioos:station:wmo:42880:2,2022-03-01T02:40:00Z,0.0000,0.0000,11.6,22.8,11111222
BP,ioos:station:wmo:42880:2,2022-03-01T02:50:00Z,0.0000,0.0000,11.6,22.8,11111222
BP,ioos:station:wmo:42880:2,2022-03-01T03:00:00Z,0.0000,0.0000,11.6,22.8,11111222
BP,ioos:station:wmo:42880:2,2022-03-01T03:10:00Z,0.0000,0.0000,11.6,22.8,11111222
BP,ioos:station:wmo:42880:2,2022-03-01T03:20:00Z,0.0000,0.0000,11.7,22.8,11111222
BP,ioos:station:wmo:42880:2,2022-03-01T03:30:00Z,0.0000,0.0000,11.7,22.8,11111222
BP,ioos:station:wmo:42880:2,2022-03-01T03:40:00Z,0.0000,0.0000,11.6,22.8,11111222
BP,ioos:station:wmo:42880:2,2022-03-01T03:50:00Z,0.0000,0.0000,11.6,22.8,11111222
BP,ioos:station:wmo:42880:2,2022-03-01T04:00:00Z,0.0000,0.0000,11.6,22.8,11111222
BP,ioos:station:wmo:42880:2,2022-03-01T04:10:00Z,0.0000,0.0000,11.6,22.8,11111222
BP,ioos:station:wmo:42880:2,2022-03-01T04:20:00Z,0.0000,0.0000,11.6,22.8,11111222
BP,ioos:station:wmo:42880:2,2022-03-01T04:30:00Z,0.0000,0.0000,11.6,22.8,11111222
BP,ioos:station:wmo:42880:2,2022-03-01T04:40:00Z,0.0000,0.0000,11.7,22.8,11111222
BP,ioos:station:wmo:42880:2,2022-03-01T04:50:00Z,0.0000,0.0000,11.7,22.8,11111222
BP,ioos:station:wmo:42880:2,2022-03-01T05:00:00Z,0.0000,0.0000,11.7,22.8,11111222
BP,ioos:station:wmo:42880:2,2022-03-01T05:10:00Z,0.0000,0.0000,11.7,22.8,11111222
BP,ioos:station:wmo:42880:2,2022-03-01T05:20:00Z,0.0000,0.0000,11.6,22.8,11111222
BP,ioos:station:wmo:42880:2,2022-03-01T05:30:00Z,0.0000,0.0000,11.7,22.8,11111222
BP,ioos:station:wmo:42880:2,2022-03-01T05:40:00Z,0.0000,0.0000,11.7,22.8,11111222
BP,ioos:station:wmo:42880:2,2022-03-01T05:50:00Z,0.0000,0.0000,11.7,22.8,11111222
BP,ioos:station:wmo:42880:2,2022-03-01T06:00:00Z,0.0000,0.0000,11.6,22.8,11111222
BP,ioos:station:wmo:42880:2,2022-03-01T06:10:00Z,0.0000,0.0000,11.6,22.8,11111222
BP,ioos:station:wmo:42880:2,2022-03-01T06:20:00Z,0.0000,0.0000,11.7,22.8,11111222
BP,ioos:station:wmo:42880:2,2022-03-01T06:30:00Z,0.0000,0.0000,11.7,22.8,11111222
BP,ioos:station:wmo:42880:2,2022-03-01T06:40:00Z,0.0000,0.0000,11.7,22.8,11111222
BP,ioos:station:wmo:42880:2,2022-03-01T06:50:00Z,0.0000,0.0000,11.7,22.8,11111222
BP,ioos:station:wmo:42880:2,2022-03-01T07:00:00Z,0.0000,0.0000,11.7,22.8,11111222
BP,ioos:station:wmo:42880:2,2022-03-01T07:10:00Z,0.0000,0.0000,11.7,22.8,11111222
BP,ioos:station:wmo:42880:2,2022-03-01T07:20:00Z,0.0000,0.0000,11.7,22.8,11111222
BP,ioos:station:wmo:42880:2,2022-03-01T07:30:00Z,0.0000,0.0000,11.6,22.8,11111222
BP,ioos:station:wmo:42880:2,2022-03-01T07:40:00Z,0.0000,0.0000,11.6,22.8,11111222
BP,ioos:station:wmo:42880:2,2022-03-01T07:50:00Z,0.0000,0.0000,11.6,22.8,11111222
BP,ioos:station:wmo:42880:2,2022-03-01T08:00:00Z,0.0000,0.0000,11.6,22.8,11111222
BP,ioos:station:wmo:42880:2,2022-03-01T08:10:00Z,0.0000,0.0000,11.6,22.8,11111222
BP,ioos:station:wmo:42880:2,2022-03-01T08:20:00Z,0.0000,0.0000,11.6,22.8,11111222
BP,ioos:station:wmo:42880:2,2022-03-01T08:30:00Z,0.0000,0.0000,11.6,22.8,11111222
BP,ioos:station:wmo:42880:2,2022-03-01T08:40:00Z,0.0000,0.0000,11.6,22.8,11111222
BP,ioos:station:wmo:42880:2,2022-03-01T08:50:00Z,0.0000,0.0000,11.6,22.8,11111222
BP,ioos:station:wmo:42880:2,2022-03-01T09:00:00Z,0.0000,0.0000,11.6,22.8,11111222
BP,ioos:station:wmo:42880:2,2022-03-01T09:10:00Z,0.0000,0.0000,11.6,22.8,11111222
BP,ioos:station:wmo:42880:2,2022-03-01T09:20:00Z,0.0000,0.0000,11.7,22.8,11111222
BP,ioos:station:wmo:42880:2,2022-03-01T09:30:00Z,0.0000,0.0000,11.7,22.7,11111222
BP,ioos:station:wmo:42880:2,2022-03-01T09:40:00Z,0.0000,0.0000,11.7,22.8,11111222
BP,ioos:station:wmo:42880:2,2022-03-01T09:50:00Z,0.0000,0.0000,11.6,22.8,11111222
BP,ioos:station:wmo:42880:2,2022-03-01T10:00:00Z,0.0000,0.0000,11.7,22.8,11111222
BP,ioos:station:wmo:42880:2,2022-03-01T10:10:00Z,0.0000,0.0000,11.7,22.7,11111222
BP,ioos:station:wmo:42880:2,2022-03-01T10:20:00Z,0.0000,0.0000,11.7,22.7,11111222
BP,ioos:station:wmo:42880:2,2022-03-01T10:30:00Z,0.0000,0.0000,11.7,22.8,11111222
BP,ioos:station:wmo:42880:2,2022-03-01T10:40:00Z,0.0000,0.0000,11.7,22.7,11111222
BP,ioos:station:wmo:42880:2,2022-03-01T10:50:00Z,0.0000,0.0000,11.7,22.7,11111222
BP,ioos:station:wmo:42880:2,2022-03-01T11:00:00Z,0.0000,0.0000,11.7,22.7,11111222
BP,ioos:station:wmo:42880:2,2022-03-01T11:10:00Z,0.0000,0.0000,11.7,22.7,11111222
BP,ioos:station:wmo:42880:2,2022-03-01T11:20:00Z,0.0000,0.0000,11.7,22.7,11111222
BP,ioos:station:wmo:42880:2,2022-03-01T11:30:00Z,0.0000,0.0000,11.7,22.7,11111222
BP,ioos:station:wmo:42880:2,2022-03-01T11:40:00Z,0.0000,0.0000,11.7,22.7,11111222
BP,ioos:station:wmo:42880:2,2022-03-01T11:50:00Z,0.0000,0.0000,11.7,22.7,11111222
BP,ioos:station:wmo:42880:2,2022-03-01T12:00:00Z,0.0000,0.0000,11.7,22.7,11111222
BP,ioos:station:wmo:42880:2,2022-03-01T12:10:00Z,0.0000,0.0000,11.7,22.7,11111222
BP,ioos:station:wmo:42880:2,2022-03-01T12:20:00Z,0.0000,0.0000,11.6,22.7,11111222
BP,ioos:station:wmo:42880:2,2022-03-01T12:30:00Z,0.0000,0.0000,11.6,22.7,11111222
BP,ioos:station:wmo:42880:2,2022-03-01T12:40:00Z,0.0000,0.0000,11.6,22.7,11111222
BP,ioos:station:wmo:42880:2,2022-03-01T12:50:00Z,0.0000,0.0000,11.6,22.7,11111222
BP,ioos:station:wmo:42880:2,2022-03-01T13:00:00Z,0.0000,0.0000,11.6,22.7,11111222
BP,ioos:station:wmo:42880:2,2022-03-01T13:10:00Z,0.0000,0.0000,11.6,22.7,11111222
BP,ioos:station:wmo:42880:2,2022-03-01T13:20:00Z,0.0000,0.0000,11.6,22.7,11111222
BP,ioos:station:wmo:42880:2,2022-03-01T13:30:00Z,0.0000,0.0000,11.6,22.7,11111222
BP,ioos:station:wmo:42880:2,2022-03-01T13:40:00Z,0.0000,0.0000,11.7,22.7,11111222
BP,ioos:station:wmo:42880:2,2022-03-01T13:50:00Z,0.0000,0.0000,11.6,22.7,11111222
BP,ioos:station:wmo:42880:2,2022-03-01T14:00:00Z,0.0000,0.0000,11.6,22.7,11111222
BP,ioos:station:wmo:42880:2,2022-03-01T14:10:00Z,0.0000,0.0000,11.6,22.7,11111222
BP,ioos:station:wmo:42880:2,2022-03-01T14:20:00Z,0.0000,0.0000,11.7,22.7,11111222
BP,ioos:station:wmo:42880:2,2022-03-01T14:30:00Z,0.0000,0.0000,11.6,22.7,11111222
BP,ioos:station:wmo:42880:2,2022-03-01T14:40:00Z,0.0000,0.0000,11.7,22.7,11111222
BP,ioos:station:wmo:42880:2,2022-03-01T14:50:00Z,0.0000,0.0000,11.6,22.7,11111222
BP,ioos:station:wmo:42880:2,2022-03-01T15:00:00Z,0.0000,0.0000,11.6,22.7,11111222
BP,ioos:station:wmo:42880:2,2022-03-01T15:10:00Z,0.0000,0.0000,11.7,22.7,11111222
BP,ioos:station:wmo:42880:2,2022-03-01T15:20:00Z,0.0000,0.0000,11.7,22.7,11111222
BP,ioos:station:wmo:42880:2,2022-03-01T15:30:00Z,0.0000,0.0000,11.7,22.7,11111222
BP,ioos:station:wmo:42880:2,2022-03-01T15:40:00Z,0.0000,0.0000,11.7,22.7,11111222
BP,ioos:station:wmo:42880:2,2022-03-01T15:50:00Z,0.0000,0.0000,11.7,22.6,11111222
BP,ioos:station:wmo:42880:2,2022-03-01T16:00:00Z,0.0000,0.0000,11.7,22.6,11111222
BP,ioos:station:wmo:42880:2,2022-03-01T16:10:00Z,0.0000,0.0000,11.7,22.6,11111222
BP,ioos:station:wmo:42880:2,2022-03-01T16:20:00Z,0.0000,0.0000,11.7,22.6,11111222
BP,ioos:station:wmo:42880:2,2022-03-01T16:30:00Z,0.0000,0.0000,11.6,22.6,11111222
BP,ioos:station:wmo:42880:2,2022-03-01T16:40:00Z,0.0000,0.0000,11.6,22.6,11111222
BP,ioos:station:wmo:42880:2,2022-03-01T16:50:00Z,0.0000,0.0000,11.6,22.6,11111222
BP,ioos:station:wmo:42880:2,2022-03-01T17:00:00Z,0.0000,0.0000,11.6,22.6,11111222
BP,ioos:station:wmo:42880:2,2022-03-01T17:10:00Z,0.0000,0.0000,11.6,22.6,11111222
BP,ioos:station:wmo:42880:2,2022-03-01T17:20:00Z,0.0000,0.0000,11.6,22.6,11111222
BP,ioos:station:wmo:42880:2,2022-03-01T17:30:00Z,0.0000,0.0000,11.7,22.6,11111222
BP,ioos:station:wmo:42880:2,2022-03-01T17:40:00Z,0.0000,0.0000,11.8,22.6,11111222
BP,ioos:station:wmo:42880:2,2022-03-01T17:50:00Z,0.0000,0.0000,11.8,22.6,11111222
BP,ioos:station:wmo:42880:2,2022-03-01T18:00:00Z,0.0000,0.0000,11.8,22.6,11111222
BP,ioos:station:wmo:42880:2,2022-03-01T18:10:00Z,0.0000,0.0000,11.8,22.6,11111222
BP,ioos:station:wmo:42880:2,2022-03-01T18:20:00Z,0.0000,0.0000,11.8,22.6,11111222
BP,ioos:station:wmo:42880:2,2022-03-01T18:30:00Z,0.0000,0.0000,11.8,22.6,11111222
BP,ioos:station:wmo:42880:2,2022-03-01T18:40:00Z,0.0000,0.0000,11.8,22.6,11111222
BP,ioos:station:wmo:42880:2,2022-03-01T18:50:00Z,0.0000,0.0000,11.7,22.6,11111222
BP,ioos:station:wmo:42880:2,2022-03-01T19:00:00Z,0.0000,0.0000,11.8,22.6,11111222
BP,ioos:station:wmo:42880:2,2022-03-01T19:10:00Z,0.0000,0.0000,11.8,22.6,11111222
BP,ioos:station:wmo:42880:2,2022-03-01T19:20:00Z,0.0000,0.0000,11.8,22.6,11111222
BP,ioos:station:wmo:42880:2,2022-03-01T19:30:00Z,0.0000,0.0000,11.7,22.6,11111222
BP,ioos:station:wmo:42880:2,2022-03-01T19:40:00Z,0.0000,0.0000,11.7,22.6,11111222
BP,ioos:station:wmo:42880:2,2022-03-01T19:50:00Z,0.0000,0.0000,11.8,22.6,11111222
BP,ioos:station:wmo:42880:2,2022-03-01T20:00:00Z,0.0000,0.0000,11.8,22.6,11111222
BP,ioos:station:wmo:42880:2,2022-03-01T20:10:00Z,0.0000,0.0000,11.7,22.6,11111222
BP,ioos:station:wmo:42880:2,2022-03-01T20:20:00Z,0.0000,0.0000,11.7,22.6,11111222
BP,ioos:station:wmo:42880:2,2022-03-01T20:30:00Z,0.0000,0.0000,11.7,22.6,11111222
BP,ioos:station:wmo:42880:2,2022-03-01T20:40:00Z,0.0000,0.0000,11.8,22.6,11111222
BP,ioos:station:wmo:42880:2,2022-03-01T20:50:00Z,0.0000,0.0000,11.8,22.6,11111222
BP,ioos:station:wmo:42880:2,2022-03-01T21:00:00Z,0.0000,0.0000,11.8,22.6,11111222
BP,ioos:station:wmo:42880:2,2022-03-01T21:10:00Z,0.0000,0.0000,11.8,22.6,11111222
BP,ioos:station:wmo:42880:2,2022-03-01T21:20:00Z,0.0000,0.0000,11.8,22.6,11111222
BP,ioos:station:wmo:42880:2,2022-03-01T21:30:00Z,0.0000,0.0000,11.8,22.6,11111222
BP,ioos:station:wmo:42880:2,2022-03-01T21:40:00Z,0.0000,0.0000,11.8,22.6,11111222
BP,ioos:station:wmo:42880:2,2022-03-01T21:50:00Z,0.0000,0.0000,11.8,22.6,11111222
BP,ioos:station:wmo:42880:2,2022-03-01T22:00:00Z,0.0000,0.0000,11.8,22.6,11111222
BP,ioos:station:wmo:42880:2,2022-03-01T22:10:00Z,0.0000,0.0000,11.8,22.6,11111222
BP,ioos:station:wmo:42880:2,2022-03-01T22:20:00Z,0.0000,0.0000,11.8,22.6,11111222
BP,ioos:station:wmo:42880:2,2022-03-01T22:30:00Z,0.0000,0.0000,11.8,22.6,11111222
BP,ioos:station:wmo:42880:2,2022-03-01T22:40:00Z,0.0000,0.0000,11.9,22.6,11111222
BP,ioos:station:wmo:42880:2,2022-03-01T22:50:00Z,0.0000,0.0000,11.9,22.6,11111222
BP,ioos:station:wmo:42880:2,2022-03-01T23:00:00Z,0.0000,0.0000,11.8,22.6,11111222
BP,ioos:station:wmo:42880:2,2022-03-03T02:46:00Z,0.0000,0.0000,9.4,22.1,11111222
BP,ioos:station:wmo:42880:2,2022-03-03T02:56:00Z,0.0000,0.0000,9.4,22.2,11111222
BP,ioos:station:wmo:42880:2,2022-03-03T03:06:00Z,0.0000,0.0000,9.3,22.3,11111222
BP,ioos:station:wmo:42880:2,2022-03-03T03:16:00Z,0.0000,0.0000,9.3,22.3,11111222
BP,ioos:station:wmo:42880:2,2022-03-03T03:26:00Z,0.0000,0.0000,9.2,22.4,11111222
BP,ioos:station:wmo:42880:2,2022-03-03T03:36:00Z,0.0000,0.0000,9.2,22.4,11111222
BP,ioos:station:wmo:42880:2,2022-03-03T03:46:00Z,0.0000,0.0000,9.2,22.4,11111222
BP,ioos:station:wmo:42880:2,2022-03-03T03:56:00Z,0.0000,0.0000,9.2,22.4,11111222
BP,ioos:station:wmo:42880:2,2022-03-03T04:06:00Z,0.0000,0.0000,9.2,22.5,11111222
BP,ioos:station:wmo:42880:2,2022-03-03T04:16:00Z,0.0000,0.0000,9.2,22.5,11111222
BP,ioos:station:wmo:42880:2,2022-03-03T04:26:00Z,0.0000,0.0000,9.2,22.5,11111222
BP,ioos:station:wmo:42880:2,2022-03-03T04:36:00Z,0.0000,0.0000,9.2,22.5,11111222
BP,ioos:station:wmo:42880:2,2022-03-03T04:46:00Z,0.0000,0.0000,9.2,22.5,11111222
BP,ioos:station:wmo:42880:2,2022-03-03T04:56:00Z,0.0000,0.0000,9.2,22.5,11111222
BP,ioos:station:wmo:42880:2,2022-03-03T05:06:00Z,0.0000,0.0000,9.2,22.5,11111222
BP,ioos:station:wmo:42880:2,2022-03-03T05:16:00Z,0.0000,0.0000,9.2,22.5,11111222
BP,ioos:station:wmo:42880:2,2022-03-03T05:26:00Z,0.0000,0.0000,9.2,22.5,11111222
BP,ioos:station:wmo:42880:2,2022-03-03T05:36:00Z,0.0000,0.0000,9.2,22.5,11111222
BP,ioos:station:wmo:42880:2,2022-03-03T05:46:00Z,0.0000,0.0000,9.2,22.5,11111222
BP,ioos:station:wmo:42880:2,2022-03-03T05:56:00Z,0.0000,0.0000,9.2,22.5,11111222
BP,ioos:station:wmo:42880:2,2022-03-03T06:06:00Z,0.0000,0.0000,9.2,22.5,11111222
BP,ioos:station:wmo:42880:2,2022-03-03T06:16:00Z,0.0000,0.0000,9.2,22.5,11111222
BP,ioos:station:wmo:42880:2,2022-03-03T06:26:00Z,0.0000,0.0000,9.2,22.5,11111222
BP,ioos:station:wmo:42880:2,2022-03-03T06:36:00Z,0.0000,0.0000,9.2,22.5,11111222
BP,ioos:station:wmo:42880:2,2022-03-03T06:46:00Z,0.0000,0.0000,9.2,22.5,11111222
BP,ioos:station:wmo:42880:2,2022-03-03T06:56:00Z,0.0000,0.0000,9.1,22.5,11111222
BP,ioos:station:wmo:42880:2,2022-03-03T07:06:00Z,0.0000,0.0000,9.1,22.5,11111222
BP,ioos:station:wmo:42880:2,2022-03-03T07:16:00Z,0.0000,0.0000,9.2,22.5,11111222
BP,ioos:station:wmo:42880:2,2022-03-03T07:26:00Z,0.0000,0.0000,9.1,22.5,11111222
BP,ioos:station:wmo:42880:2,2022-03-03T07:36:00Z,0.0000,0.0000,9.1,22.5,11111222
BP,ioos:station:wmo:42880:2,2022-03-03T07:46:00Z,0.0000,0.0000,9.1,22.5,11111222
BP,ioos:station:wmo:42880:2,2022-03-03T07:56:00Z,0.0000,0.0000,9.1,22.5,11111222
BP,ioos:station:wmo:42880:2,2022-03-03T08:06:00Z,0.0000,0.0000,9.1,22.5,11111222
BP,ioos:station:wmo:42880:2,2022-03-03T08:16:00Z,0.0000,0.0000,9.2,22.5,11111222
BP,ioos:station:wmo:42880:2,2022-03-03T08:26:00Z,0.0000,0.0000,9.3,22.5,11111222
BP,ioos:station:wmo:42880:2,2022-03-03T08:36:00Z,0.0000,0.0000,9.3,22.5,11111222
BP,ioos:station:wmo:42880:2,2022-03-03T08:46:00Z,0.0000,0.0000,9.2,22.5,11111222
BP,ioos:station:wmo:42880:2,2022-03-03T08:56:00Z,0.0000,0.0000,9.2,22.5,11111222
BP,ioos:station:wmo:42880:2,2022-03-03T09:06:00Z,0.0000,0.0000,9.2,22.5,11111222
BP,ioos:station:wmo:42880:2,2022-03-03T09:16:00Z,0.0000,0.0000,9.2,22.5,11111222
BP,ioos:station:wmo:42880:2,2022-03-03T09:26:00Z,0.0000,0.0000,9.2,22.5,11111222
BP,ioos:station:wmo:42880:2,2022-03-03T09:36:00Z,0.0000,0.0000,9.2,22.5,11111222
BP,ioos:station:wmo:42880:2,2022-03-03T09:46:00Z,0.0000,0.0000,9.2,22.5,11111222
BP,ioos:station:wmo:42880:2,2022-03-03T09:56:00Z,0.0000,0.0000,9.2,22.5,11111222
BP,ioos:station:wmo:42880:2,2022-03-03T10:06:00Z,0.0000,0.0000,9.2,22.5,11111222
BP,ioos:station:wmo:42880:2,2022-03-03T10:16:00Z,0.0000,0.0000,9.2,22.5,11111222
BP,ioos:station:wmo:42880:2,2022-03-03T10:26:00Z,0.0000,0.0000,9.2,22.5,11111222
BP,ioos:station:wmo:42880:2,2022-03-03T10:36:00Z,0.0000,0.0000,9.1,22.5,11111222
BP,ioos:station:wmo:42880:2,2022-03-03T10:46:00Z,0.0000,0.0000,9.1,22.5,11111222
BP,ioos:station:wmo:42880:2,2022-03-03T10:56:00Z,0.0000,0.0000,9.1,22.5,11111222
BP,ioos:station:wmo:42880:2,2022-03-03T11:06:00Z,0.0000,0.0000,9.1,22.5,11111222
BP,ioos:station:wmo:42880:2,2022-03-03T11:16:00Z,0.0000,0.0000,9.1,22.5,11111222
BP,ioos:station:wmo:42880:2,2022-03-03T11:26:00Z,0.0000,0.0000,9.1,22.5,11111222
BP,ioos:station:wmo:42880:2,2022-03-03T11:36:00Z,0.0000,0.0000,9.2,22.5,11111222
BP,ioos:station:wmo:42880:2,2022-03-03T11:46:00Z,0.0000,0.0000,9.2,22.5,11111222
BP,ioos:station:wmo:42880:2,2022-03-03T11:56:00Z,0.0000,0.0000,9.2,22.5,11111222
BP,ioos:station:wmo:42880:2,2022-03-03T12:06:00Z,0.0000,0.0000,9.2,22.5,11111222
BP,ioos:station:wmo:42880:2,2022-03-03T12:16:00Z,0.0000,0.0000,9.2,22.5,11111222
BP,ioos:station:wmo:42880:2,2022-03-03T12:26:00Z,0.0000,0.0000,9.2,22.5,11111222
BP,ioos:station:wmo:42880:2,2022-03-03T12:36:00Z,0.0000,0.0000,9.2,22.5,11111222
BP,ioos:station:wmo:42880:2,2022-03-03T12:46:00Z,0.0000,0.0000,9.2,22.5,11111222
BP,ioos:station:wmo:42880:2,2022-03-03T12:56:00Z,0.0000,0.0000,9.2,22.5,11111222
BP,ioos:station:wmo:42880:2,2022-03-03T13:06:00Z,0.0000,0.0000,9.2,22.5,11111222
BP,ioos:station:wmo:42880:2,2022-03-03T13:16:00Z,0.0000,0.0000,9.2,22.5,11111222
BP,ioos:station:wmo:42880:2,2022-03-03T13:26:00Z,0.0000,0.0000,9.1,22.5,11111222
BP,ioos:station:wmo:42880:2,2022-03-03T13:36:00Z,0.0000,0.0000,9.2,22.5,11111222
BP,ioos:station:wmo:42880:2,2022-03-03T13:46:00Z,0.0000,0.0000,9.2,22.5,11111222
BP,ioos:station:wmo:42880:2,2022-03-03T13:56:00Z,0.0000,0.0000,9.2,22.5,11111222
BP,ioos:station:wmo:42880:2,2022-03-03T14:06:00Z,0.0000,0.0000,9.2,22.5,11111222
BP,ioos:station:wmo:42880:2,2022-03-03T14:16:00Z,0.0000,0.0000,9.2,22.5,11111222
BP,ioos:station:wmo:42880:2,2022-03-03T14:26:00Z,0.0000,0.0000,9.2,22.5,11111222
BP,ioos:station:wmo:42880:2,2022-03-03T14:36:00Z,0.0000,0.0000,9.2,22.5,11111222
BP,ioos:station:wmo:42880:2,2022-03-03T14:46:00Z,0.0000,0.0000,9.2,22.5,11111222
BP,ioos:station:wmo:42880:2,2022-03-03T14:56:00Z,0.0000,0.0000,9.2,22.5,11111222
BP,ioos:station:wmo:42880:2,2022-03-03T15:06:00Z,0.0000,0.0000,9.2,22.5,11111222
BP,ioos:station:wmo:42880:2,2022-03-03T15:16:00Z,0.0000,0.0000,9.3,22.6,11111222
BP,ioos:station:wmo:42880:2,2022-03-03T15:26:00Z,0.0000,0.0000,9.2,22.6,11111222
BP,ioos:station:wmo:42880:2,2022-03-03T15:36:00Z,0.0000,0.0000,9.2,22.6,11111222
BP,ioos:station:wmo:42880:2,2022-03-03T15:46:00Z,0.0000,0.0000,9.3,22.6,11111222
BP,ioos:station:wmo:42880:2,2022-03-03T15:56:00Z,0.0000,0.0000,9.3,22.6,11111222
BP,ioos:station:wmo:42880:2,2022-03-03T16:06:00Z,0.0000,0.0000,9.3,22.6,11111222
BP,ioos:station:wmo:42880:2,2022-03-03T16:16:00Z,0.0000,0.0000,9.3,22.6,11111222
BP,ioos:station:wmo:42880:2,2022-03-03T16:26:00Z,0.0000,0.0000,9.3,22.6,11111222
BP,ioos:station:wmo:42880:2,2022-03-03T16:36:00Z,0.0000,0.0000,9.3,22.6,11111222
BP,ioos:station:wmo:42880:2,2022-03-03T16:46:00Z,0.0000,0.0000,9.3,22.6,11111222
BP,ioos:station:wmo:42880:2,2022-03-03T16:56:00Z,0.0000,0.0000,9.3,22.6,11111222
BP,ioos:station:wmo:42880:2,2022-03-03T17:06:00Z,0.0000,0.0000,9.3,22.6,11111222
BP,ioos:station:wmo:42880:2,2022-03-03T17:16:00Z,0.0000,0.0000,9.2,22.6,11111222
BP,ioos:station:wmo:42880:2,2022-03-03T17:26:00Z,0.0000,0.0000,9.2,22.6,11111222
BP,ioos:station:wmo:42880:2,2022-03-03T17:36:00Z,0.0000,0.0000,9.2,22.6,11111222
BP,ioos:station:wmo:42880:2,2022-03-03T17:46:00Z,0.0000,0.0000,9.2,22.6,11111222
BP,ioos:station:wmo:42880:2,2022-03-03T17:56:00Z,0.0000,0.0000,9.2,22.6,11111222
BP,ioos:station:wmo:42880:2,2022-03-03T18:06:00Z,0.0000,0.0000,9.2,22.6,11111222
BP,ioos:station:wmo:42880:2,2022-03-03T18:16:00Z,0.0000,0.0000,9.2,22.6,11111222
BP,ioos:station:wmo:42880:2,2022-03-03T18:26:00Z,0.0000,0.0000,9.2,22.6,11111222
BP,ioos:station:wmo:42880:2,2022-03-03T18:36:00Z,0.0000,0.0000,9.2,22.6,11111222
BP,ioos:station:wmo:42880:2,2022-03-03T18:46:00Z,0.0000,0.0000,9.2,22.6,11111222
BP,ioos:station:wmo:42880:2,2022-03-03T18:56:00Z,0.0000,0.0000,9.2,22.6,11111222
BP,ioos:station:wmo:42880:2,2022-03-03T19:06:00Z,0.0000,0.0000,9.2,22.6,11111222
BP,ioos:station:wmo:42880:2,2022-03-03T19:16:00Z,0.0000,0.0000,9.2,22.6,11111222
BP,ioos:station:wmo:42880:2,2022-03-03T19:26:00Z,0.0000,0.0000,9.2,22.6,11111222
BP,ioos:station:wmo:42880:2,2022-03-03T19:36:00Z,0.0000,0.0000,9.2,22.6,11111222
BP,ioos:station:wmo:42880:2,2022-03-03T19:46:00Z,0.0000,0.0000,9.2,22.5,11111222
BP,ioos:station:wmo:42880:2,2022-03-03T19:56:00Z,0.0000,0.0000,9.2,22.6,11111222
BP,ioos:station:wmo:42880:2,2022-03-03T20:06:00Z,0.0000,0.0000,9.2,22.6,11111222
BP,ioos:station:wmo:42880:2,2022-03-03T20:16:00Z,0.0000,0.0000,9.2,22.5,11111222
BP,ioos:station:wmo:42880:2,2022-03-03T20:26:00Z,0.0000,0.0000,9.2,22.5,11111222
BP,ioos:station:wmo:42880:2,2022-03-03T20:36:00Z,0.0000,0.0000,9.2,22.6,11111222
BP,ioos:station:wmo:42880:2,2022-03-03T20:46:00Z,0.0000,0.0000,9.2,22.6,11111222
BP,ioos:station:wmo:42880:2,2022-03-03T20:56:00Z,0.0000,0.0000,9.2,22.6,11111222
BP,ioos:station:wmo:42880:2,2022-03-03T21:06:00Z,0.0000,0.0000,9.2,22.6,11111222
BP,ioos:station:wmo:42880:2,2022-03-03T21:16:00Z,0.0000,0.0000,9.2,22.6,11111222
BP,ioos:station:wmo:42880:2,2022-03-03T21:26:00Z,0.0000,0.0000,9.2,22.6,11111222
BP,ioos:station:wmo:42880:2,2022-03-03T21:36:00Z,0.0000,0.0000,9.2,22.6,11111222
BP,ioos:station:wmo:42880:2,2022-03-03T21:46:00Z,0.0000,0.0000,9.2,22.6,11111222
BP,ioos:station:wmo:42880:2,2022-03-03T21:56:00Z,0.0000,0.0000,9.2,22.6,11111222
BP,ioos:station:wmo:42880:2,2022-03-03T22:06:00Z,0.0000,0.0000,9.2,22.6,11111222
BP,ioos:station:wmo:42880:2,2022-03-03T22:16:00Z,0.0000,0.0000,9.2,22.6,11111222
BP,ioos:station:wmo:42880:2,2022-03-03T22:26:00Z,0.0000,0.0000,9.2,22.6,11111222
BP,ioos:station:wmo:42880:2,2022-03-03T22:36:00Z,0.0000,0.0000,9.2,22.5,11111222
BP,ioos:station:wmo:42880:2,2022-03-03T22:46:00Z,0.0000,0.0000,9.1,22.5,11111222
BP,ioos:station:wmo:42880:2,2022-03-03T22:56:00Z,0.0000,0.0000,9.1,22.6,11111222
BP,ioos:station:wmo:42880:2,2022-03-03T23:06:00Z,0.0000,0.0000,9.1,22.6,11111222
BP,ioos:station:wmo:42880:2,2022-03-03T23:16:00Z,0.0000,0.0000,9.0,22.6,11111222
BP,ioos:station:wmo:42880:2,2022-03-03T23:26:00Z,0.0000,0.0000,9.0,22.6,11111222
BP,ioos:station:wmo:42880:2,2022-03-03T23:36:00Z,0.0000,0.0000,9.1,22.6,11111222
BP,ioos:station:wmo:42880:2,2022-03-03T23:46:00Z,0.0000,0.0000,9.2,22.6,11111222
BP,ioos:station:wmo:42880:2,2022-03-03T23:56:00Z,0.0000,0.0000,9.2,22.6,11111222
BP,ioos:station:wmo:42880:2,2022-03-04T00:06:00Z,0.0000,0.0000,9.3,22.6,11111222
BP,ioos:station:wmo:42880:2,2022-03-04T00:16:00Z,0.0000,0.0000,9.3,22.6,11111222
BP,ioos:station:wmo:42880:2,2022-03-04T00:26:00Z,0.0000,0.0000,9.3,22.6,11111222
BP,ioos:station:wmo:42880:2,2022-03-04T00:36:00Z,0.0000,0.0000,9.3,22.6,11111222
BP,ioos:station:wmo:42880:2,2022-03-04T00:46:00Z,0.0000,0.0000,9.3,22.6,11111222
BP,ioos:station:wmo:42880:2,2022-03-04T00:56:00Z,0.0000,0.0000,9.3,22.6,11111222
BP,ioos:station:wmo:42880:2,2022-03-04T01:06:00Z,0.0000,0.0000,9.2,22.6,11111222
BP,ioos:station:wmo:42880:2,2022-03-04T01:16:00Z,0.0000,0.0000,9.3,22.6,11111222
BP,ioos:station:wmo:42880:2,2022-03-04T01:26:00Z,0.0000,0.0000,9.3,22.6,11111222
BP,ioos:station:wmo:42880:2,2022-03-04T01:36:00Z,0.0000,0.0000,9.3,22.6,11111222
BP,ioos:station:wmo:42880:2,2022-03-04T01:46:00Z,0.0000,0.0000,9.3,22.6,11111222
BP,ioos:station:wmo:42880:2,2022-03-04T01:56:00Z,0.0000,0.0000,9.2,22.6,11111222
BP,ioos:station:wmo:42880:2,2022-03-04T02:06:00Z,0.0000,0.0000,9.2,22.6,11111222
BP,ioos:station:wmo:42880:2,2022-03-04T02:16:00Z,0.0000,0.0000,9.2,22.6,11111222
BP,ioos:station:wmo:42880:2,2022-03-04T02:26:00Z,0.0000,0.0000,9.3,22.5,11111222
BP,ioos:station:wmo:42880:2,2022-03-04T02:36:00Z,0.0000,0.0000,9.4,22.6,11111222
BP,ioos:station:wmo:42880:2,2022-03-04T02:46:00Z,0.0000,0.0000,9.4,22.6,11111222
BP,ioos:station:wmo:42880:2,2022-03-04T02:56:00Z,0.0000,0.0000,9.4,22.6,11111222
BP,ioos:station:wmo:42880:2,2022-03-04T03:06:00Z,0.0000,0.0000,9.3,22.6,11111222
BP,ioos:station:wmo:42880:2,2022-03-04T03:16:00Z,0.0000,0.0000,9.2,22.6,11111222
BP,ioos:station:wmo:42880:2,2022-03-04T03:26:00Z,0.0000,0.0000,9.1,22.6,11111222
BP,ioos:station:wmo:42880:2,2022-03-04T03:36:00Z,0.0000,0.0000,9.1,22.6,11111222
BP,ioos:station:wmo:42880:2,2022-03-04T03:46:00Z,0.0000,0.0000,9.1,22.6,11111222